Time,TemperatureF,DewpointF,PressureIn,WindDirection,WindDirectionDegrees,WindSpeedMPH,WindSpeedGustMPH,Humidity,HourlyPrecipIn,Conditions,Clouds,dailyrainin,SoftwareType,DateUTC
2013-03-26 00:00:00,36.5,25.9,29.21,WNW,303,0.0,0.0,65,0.00,,,0.00,VWS V14.01,2013-03-26 04:00:00,
2013-03-26 00:05:00,36.5,25.9,29.21,NNE,29,0.0,3.1,65,0.00,,,0.00,VWS V14.01,2013-03-26 04:05:00,
2013-03-26 00:10:00,36.7,25.7,29.21,NNE,19,0.0,0.0,64,0.00,,,0.00,VWS V14.01,2013-03-26 04:10:00,
2013-03-26 00:15:00,36.7,25.3,29.23,South,186,0.0,0.0,63,0.00,,,0.00,VWS V14.01,2013-03-26 04:15:00,
2013-03-26 00:20:00,36.7,25.3,29.23,West,264,0.0,0.0,63,0.00,,,0.00,VWS V14.01,2013-03-26 04:20:00,
2013-03-26 00:25:00,36.7,25.3,29.21,North,353,0.0,0.0,63,0.00,,,0.00,VWS V14.01,2013-03-26 04:25:00,
2013-03-26 00:30:00,36.7,25.3,29.21,North,353,0.0,0.0,63,0.00,,,0.00,VWS V14.01,2013-03-26 04:30:00,
2013-03-26 00:35:00,36.5,24.7,29.21,WSW,256,0.0,0.0,62,0.00,,,0.00,VWS V14.01,2013-03-26 04:35:00,
2013-03-26 00:40:00,36.5,24.3,29.23,NNE,26,0.0,0.0,61,0.00,,,0.00,VWS V14.01,2013-03-26 04:40:00,
2013-03-26 00:45:00,36.5,24.3,29.23,ESE,107,0.0,0.0,61,0.00,,,0.00,VWS V14.01,2013-03-26 04:45:00,
2013-03-26 00:50:00,36.5,24.3,29.23,NE,37,0.0,0.0,61,0.00,,,0.00,VWS V14.01,2013-03-26 04:50:00,
2013-03-26 00:55:00,36.5,24.3,29.23,WNW,301,0.0,0.0,61,0.00,,,0.00,VWS V14.01,2013-03-26 04:55:00,
2013-03-26 01:00:00,36.7,24.1,29.23,WNW,301,0.0,0.0,60,0.00,,,0.00,VWS V14.01,2013-03-26 05:00:00,
2013-03-26 01:05:00,36.7,23.7,29.23,ENE,69,0.0,0.0,59,0.00,,,0.00,VWS V14.01,2013-03-26 05:05:00,
2013-03-26 01:10:00,36.5,23.5,29.23,ENE,69,0.0,0.0,59,0.00,,,0.00,VWS V14.01,2013-03-26 05:10:00,
2013-03-26 01:15:00,36.5,23.5,29.23,NE,42,0.0,0.0,59,0.00,,,0.00,VWS V14.01,2013-03-26 05:15:00,
2013-03-26 01:20:00,36.5,23.5,29.23,North,357,0.0,0.0,59,0.00,,,0.00,VWS V14.01,2013-03-26 05:20:00,
2013-03-26 01:25:00,36.5,23.5,29.23,NNW,335,0.0,0.0,59,0.00,,,0.00,VWS V14.01,2013-03-26 05:25:00,
2013-03-26 01:30:00,36.5,23.1,29.23,NNW,335,0.0,0.0,58,0.00,,,0.00,VWS V14.01,2013-03-26 05:30:00,
2013-03-26 01:35:00,36.5,22.7,29.23,ENE,77,0.0,0.0,57,0.00,,,0.00,VWS V14.01,2013-03-26 05:35:00,
2013-03-26 01:40:00,36.5,22.7,29.23,NW,322,0.0,0.0,57,0.00,,,0.00,VWS V14.01,2013-03-26 05:40:00,
2013-03-26 01:45:00,36.5,22.7,29.23,South,190,0.0,0.0,57,0.00,,,0.00,VWS V14.01,2013-03-26 05:45:00,
2013-03-26 01:50:00,36.3,22.1,29.23,NNW,338,0.0,0.0,56,0.00,,,0.00,VWS V14.01,2013-03-26 05:50:00,
2013-03-26 01:55:00,36.3,22.6,29.23,NNW,340,0.0,0.0,57,0.00,,,0.00,VWS V14.01,2013-03-26 05:55:00,
2013-03-26 02:00:00,36.3,22.6,29.23,WNW,283,0.0,0.0,57,0.00,,,0.00,VWS V14.01,2013-03-26 06:00:00,
2013-03-26 02:05:00,36.3,22.1,29.23,WNW,295,3.6,3.6,56,0.00,,,0.00,VWS V14.01,2013-03-26 06:05:00,
2013-03-26 02:10:00,36.3,22.1,29.23,NNE,12,0.0,0.0,56,0.00,,,0.00,VWS V14.01,2013-03-26 06:10:00,
2013-03-26 02:15:00,36.3,22.1,29.23,NNE,26,0.0,0.0,56,0.00,,,0.00,VWS V14.01,2013-03-26 06:15:00,
2013-03-26 02:20:00,36.5,21.9,29.23,NNE,28,0.0,0.0,55,0.00,,,0.00,VWS V14.01,2013-03-26 06:20:00,
2013-03-26 02:25:00,36.5,21.9,29.23,North,353,0.0,0.0,55,0.00,,,0.00,VWS V14.01,2013-03-26 06:25:00,
2013-03-26 02:30:00,36.5,21.9,29.23,WNW,300,0.0,0.0,55,0.00,,,0.00,VWS V14.01,2013-03-26 06:30:00,
2013-03-26 02:35:00,36.5,21.9,29.23,WNW,300,0.0,0.0,55,0.00,,,0.00,VWS V14.01,2013-03-26 06:35:00,
2013-03-26 02:40:00,36.3,21.3,29.23,NNW,345,0.0,0.0,54,0.00,,,0.00,VWS V14.01,2013-03-26 06:40:00,
2013-03-26 02:45:00,36.3,21.3,29.23,North,350,0.0,0.0,54,0.00,,,0.00,VWS V14.01,2013-03-26 06:45:00,
2013-03-26 02:50:00,36.3,21.3,29.23,North,353,0.0,0.0,54,0.00,,,0.00,VWS V14.01,2013-03-26 06:50:00,
2013-03-26 02:55:00,36.3,21.3,29.23,SW,232,0.0,0.0,54,0.00,,,0.00,VWS V14.01,2013-03-26 06:55:00,
2013-03-26 03:00:00,36.3,21.3,29.23,WNW,284,0.0,0.0,54,0.00,,,0.00,VWS V14.01,2013-03-26 07:00:00,
2013-03-26 03:05:00,36.3,21.3,29.23,NW,313,0.0,0.0,54,0.00,,,0.00,VWS V14.01,2013-03-26 07:05:00,
2013-03-26 03:10:00,36.3,21.3,29.23,NW,313,0.0,0.0,54,0.00,,,0.00,VWS V14.01,2013-03-26 07:10:00,
2013-03-26 03:15:00,36.3,21.3,29.23,NW,313,0.0,0.0,54,0.00,,,0.00,VWS V14.01,2013-03-26 07:15:00,
2013-03-26 03:20:00,36.3,21.3,29.23,North,0,0.0,0.0,54,0.00,,,0.00,VWS V14.01,2013-03-26 07:20:00,
2013-03-26 03:25:00,36.3,21.3,29.23,NNE,15,0.0,0.0,54,0.00,,,0.00,VWS V14.01,2013-03-26 07:25:00,
2013-03-26 03:30:00,36.3,21.3,29.23,NNE,20,0.0,0.0,54,0.00,,,0.00,VWS V14.01,2013-03-26 07:30:00,
2013-03-26 03:35:00,36.1,21.1,29.23,North,11,0.0,0.0,54,0.00,,,0.00,VWS V14.01,2013-03-26 07:35:00,
2013-03-26 03:40:00,36.3,21.3,29.23,North,11,0.0,0.0,54,0.00,,,0.00,VWS V14.01,2013-03-26 07:40:00,
2013-03-26 03:45:00,36.3,21.3,29.23,North,11,0.0,0.0,54,0.00,,,0.00,VWS V14.01,2013-03-26 07:45:00,
2013-03-26 03:50:00,36.3,21.3,29.23,North,11,0.0,0.0,54,0.00,,,0.00,VWS V14.01,2013-03-26 07:50:00,
2013-03-26 03:55:00,36.1,21.1,29.23,North,11,0.0,0.0,54,0.00,,,0.00,VWS V14.01,2013-03-26 07:55:00,
2013-03-26 04:00:00,36.1,21.1,29.23,North,11,0.0,0.0,54,0.00,,,0.00,VWS V14.01,2013-03-26 08:00:00,
2013-03-26 04:05:00,36.1,21.1,29.23,North,11,0.0,0.0,54,0.00,,,0.00,VWS V14.01,2013-03-26 08:05:00,
2013-03-26 04:10:00,36.1,21.1,29.23,North,11,0.0,0.0,54,0.00,,,0.00,VWS V14.01,2013-03-26 08:10:00,
2013-03-26 04:15:00,36.1,21.1,29.26,North,353,0.0,0.0,54,0.00,,,0.00,VWS V14.01,2013-03-26 08:15:00,
2013-03-26 04:20:00,35.8,20.8,29.26,SW,235,0.0,0.0,54,0.00,,,0.00,VWS V14.01,2013-03-26 08:20:00,
2013-03-26 04:25:00,35.8,20.8,29.26,SW,235,0.0,0.0,54,0.00,,,0.00,VWS V14.01,2013-03-26 08:25:00,
2013-03-26 04:30:00,35.8,20.8,29.26,NW,322,0.0,0.0,54,0.00,,,0.00,VWS V14.01,2013-03-26 08:30:00,
2013-03-26 04:35:00,35.8,20.8,29.26,NW,322,0.0,0.0,54,0.00,,,0.00,VWS V14.01,2013-03-26 08:35:00,
2013-03-26 04:40:00,35.8,20.8,29.26,ENE,64,0.0,0.0,54,0.00,,,0.00,VWS V14.01,2013-03-26 08:40:00,
2013-03-26 04:45:00,35.4,20.4,29.26,ENE,64,0.0,0.0,54,0.00,,,0.00,VWS V14.01,2013-03-26 08:45:00,
2013-03-26 04:50:00,35.4,20.4,29.26,WNW,284,0.0,0.0,54,0.00,,,0.00,VWS V14.01,2013-03-26 08:50:00,
2013-03-26 04:55:00,35.2,20.3,29.26,WNW,284,0.0,0.0,54,0.00,,,0.00,VWS V14.01,2013-03-26 08:55:00,
2013-03-26 05:00:00,35.2,20.3,29.26,WNW,284,0.0,0.0,54,0.00,,,0.00,VWS V14.01,2013-03-26 09:00:00,
2013-03-26 05:05:00,34.9,20.4,29.26,WNW,290,0.0,0.0,55,0.00,,,0.00,VWS V14.01,2013-03-26 09:05:00,
2013-03-26 05:10:00,34.7,20.2,29.26,NW,305,0.0,0.0,55,0.00,,,0.00,VWS V14.01,2013-03-26 09:10:00,
2013-03-26 05:15:00,34.7,20.2,29.26,WSW,253,0.0,0.0,55,0.00,,,0.00,VWS V14.01,2013-03-26 09:15:00,
2013-03-26 05:20:00,34.9,20.4,29.26,WSW,252,0.0,0.0,55,0.00,,,0.00,VWS V14.01,2013-03-26 09:20:00,
2013-03-26 05:25:00,35.1,20.5,29.26,NNW,329,0.0,0.0,55,0.00,,,0.00,VWS V14.01,2013-03-26 09:25:00,
2013-03-26 05:30:00,35.1,20.5,29.26,NNW,329,0.0,0.0,55,0.00,,,0.00,VWS V14.01,2013-03-26 09:30:00,
2013-03-26 05:35:00,34.7,20.6,29.26,NW,324,0.0,0.0,56,0.00,,,0.00,VWS V14.01,2013-03-26 09:35:00,
2013-03-26 05:40:00,34.7,20.6,29.26,SSW,208,0.0,0.0,56,0.00,,,0.00,VWS V14.01,2013-03-26 09:40:00,
2013-03-26 05:45:00,34.7,20.6,29.26,WNW,288,0.0,0.0,56,0.00,,,0.00,VWS V14.01,2013-03-26 09:45:00,
2013-03-26 05:50:00,34.7,20.6,29.26,WNW,295,0.0,0.0,56,0.00,,,0.00,VWS V14.01,2013-03-26 09:50:00,
2013-03-26 05:55:00,34.7,20.6,29.29,WNW,295,0.0,0.0,56,0.00,,,0.00,VWS V14.01,2013-03-26 09:55:00,
2013-03-26 06:00:00,34.9,21.2,29.29,SE,130,0.0,0.0,57,0.00,,,0.00,VWS V14.01,2013-03-26 10:00:00,
2013-03-26 06:05:00,34.9,21.2,29.29,NE,46,2.2,2.2,57,0.00,,,0.00,VWS V14.01,2013-03-26 10:05:00,
2013-03-26 06:10:00,35.1,21.4,29.29,East,84,0.0,2.2,57,0.00,,,0.00,VWS V14.01,2013-03-26 10:10:00,
2013-03-26 06:15:00,35.1,21.4,29.29,South,180,0.0,0.0,57,0.00,,,0.00,VWS V14.01,2013-03-26 10:15:00,
2013-03-26 06:20:00,35.1,21.4,29.29,South,191,0.0,0.0,57,0.00,,,0.00,VWS V14.01,2013-03-26 10:20:00,
2013-03-26 06:25:00,35.1,21.4,29.29,SSW,197,0.0,0.0,57,0.00,,,0.00,VWS V14.01,2013-03-26 10:25:00,
2013-03-26 06:30:00,35.1,21.4,29.29,WSW,256,0.0,0.0,57,0.00,,,0.00,VWS V14.01,2013-03-26 10:30:00,
2013-03-26 06:35:00,35.1,21.4,29.29,SSW,210,0.0,0.0,57,0.00,,,0.00,VWS V14.01,2013-03-26 10:35:00,
2013-03-26 06:40:00,35.1,21.4,29.29,SSW,210,0.0,0.0,57,0.00,,,0.00,VWS V14.01,2013-03-26 10:40:00,
2013-03-26 06:45:00,35.1,21.4,29.29,SSW,210,0.0,0.0,57,0.00,,,0.00,VWS V14.01,2013-03-26 10:45:00,
2013-03-26 06:50:00,35.1,21.4,29.29,SSW,198,0.0,0.0,57,0.00,,,0.00,VWS V14.01,2013-03-26 10:50:00,
2013-03-26 06:55:00,35.1,21.4,29.29,NNE,32,0.0,0.0,57,0.00,,,0.00,VWS V14.01,2013-03-26 10:55:00,
2013-03-26 06:59:00,35.2,21.5,29.32,NNE,32,0.0,0.0,57,0.00,,,0.00,VWS V14.01,2013-03-26 10:59:00,
2013-03-26 07:05:00,35.2,21.5,29.32,NNE,32,0.0,0.0,57,0.00,,,0.00,VWS V14.01,2013-03-26 11:05:00,
2013-03-26 07:09:00,35.4,21.7,29.32,WNW,288,0.0,0.0,57,0.00,,,0.00,VWS V14.01,2013-03-26 11:09:00,
2013-03-26 07:14:00,35.4,21.7,29.32,WNW,288,0.0,0.0,57,0.00,,,0.00,VWS V14.01,2013-03-26 11:14:00,
2013-03-26 07:19:00,35.6,21.5,29.32,North,357,0.0,0.0,56,0.00,,,0.00,VWS V14.01,2013-03-26 11:19:00,
2013-03-26 07:25:00,35.8,21.2,29.32,North,357,0.0,0.0,55,0.00,,,0.00,VWS V14.01,2013-03-26 11:25:00,
2013-03-26 07:29:00,35.8,21.2,29.32,NE,43,0.0,0.0,55,0.00,,,0.00,VWS V14.01,2013-03-26 11:29:00,
2013-03-26 07:34:00,36.0,21.4,29.32,NE,42,0.0,0.0,55,0.00,,,0.00,VWS V14.01,2013-03-26 11:34:00,
2013-03-26 07:39:00,36.0,21.4,29.32,NE,42,0.0,0.0,55,0.00,,,0.00,VWS V14.01,2013-03-26 11:39:00,
2013-03-26 07:44:00,36.1,21.1,29.32,South,187,0.0,0.0,54,0.00,,,0.00,VWS V14.01,2013-03-26 11:44:00,
2013-03-26 07:49:00,36.3,21.3,29.32,WSW,258,0.0,0.0,54,0.00,,,0.00,VWS V14.01,2013-03-26 11:49:00,
2013-03-26 07:54:00,36.3,21.3,29.32,WSW,258,0.0,0.0,54,0.00,,,0.00,VWS V14.01,2013-03-26 11:54:00,
2013-03-26 07:59:00,36.5,21.5,29.32,East,88,0.0,0.0,54,0.00,,,0.00,VWS V14.01,2013-03-26 11:59:00,
2013-03-26 08:04:00,36.7,21.6,29.32,East,88,0.0,0.0,54,0.00,,,0.00,VWS V14.01,2013-03-26 12:04:00,
2013-03-26 08:09:00,36.7,21.6,29.32,East,88,0.0,0.0,54,0.00,,,0.00,VWS V14.01,2013-03-26 12:09:00,
2013-03-26 08:14:00,36.7,21.6,29.32,East,89,0.0,0.0,54,0.00,,,0.00,VWS V14.01,2013-03-26 12:14:00,
2013-03-26 08:19:00,36.7,21.2,29.32,ESE,102,0.0,0.0,53,0.00,,,0.00,VWS V14.01,2013-03-26 12:19:00,
2013-03-26 08:24:00,36.9,21.3,29.32,ENE,58,0.0,0.0,53,0.00,,,0.00,VWS V14.01,2013-03-26 12:24:00,
2013-03-26 08:29:00,36.9,21.3,29.32,NNW,332,0.0,0.0,53,0.00,,,0.00,VWS V14.01,2013-03-26 12:29:00,
2013-03-26 08:34:00,36.9,20.9,29.32,SE,143,0.0,0.0,52,0.00,,,0.00,VWS V14.01,2013-03-26 12:34:00,
2013-03-26 08:39:00,36.9,20.9,29.32,NE,37,0.0,0.0,52,0.00,,,0.00,VWS V14.01,2013-03-26 12:39:00,
2013-03-26 08:44:00,37.0,21.1,29.35,NE,37,0.0,0.0,52,0.00,,,0.00,VWS V14.01,2013-03-26 12:44:00,
2013-03-26 08:49:00,37.0,21.1,29.35,NE,34,0.0,0.0,52,0.00,,,0.00,VWS V14.01,2013-03-26 12:49:00,
2013-03-26 08:54:00,37.0,21.1,29.35,NNE,20,2.7,2.7,52,0.00,,,0.00,VWS V14.01,2013-03-26 12:54:00,
2013-03-26 08:59:00,37.0,20.6,29.35,ESE,115,0.0,0.0,51,0.00,,,0.00,VWS V14.01,2013-03-26 12:59:00,
2013-03-26 09:04:00,37.0,20.6,29.35,ESE,115,0.0,0.0,51,0.00,,,0.00,VWS V14.01,2013-03-26 13:04:00,
2013-03-26 09:09:00,37.0,20.6,29.35,ESE,112,0.0,0.0,51,0.00,,,0.00,VWS V14.01,2013-03-26 13:09:00,
2013-03-26 09:14:00,37.0,20.6,29.35,NNW,334,0.0,0.0,51,0.00,,,0.00,VWS V14.01,2013-03-26 13:14:00,
2013-03-26 09:19:00,37.0,20.6,29.35,NNW,329,0.0,0.0,51,0.00,,,0.00,VWS V14.01,2013-03-26 13:19:00,
2013-03-26 09:24:00,37.4,20.9,29.35,SW,223,0.0,0.0,51,0.00,,,0.00,VWS V14.01,2013-03-26 13:24:00,
2013-03-26 09:29:00,37.6,21.1,29.35,West,273,0.0,0.0,51,0.00,,,0.00,VWS V14.01,2013-03-26 13:29:00,
2013-03-26 09:34:00,37.9,21.0,29.35,WNW,294,0.0,0.0,50,0.00,,,0.00,VWS V14.01,2013-03-26 13:34:00,
2013-03-26 09:39:00,37.9,21.0,29.35,WNW,287,0.0,0.0,50,0.00,,,0.00,VWS V14.01,2013-03-26 13:39:00,
2013-03-26 09:44:00,37.9,21.0,29.35,WNW,287,0.0,0.0,50,0.00,,,0.00,VWS V14.01,2013-03-26 13:44:00,
2013-03-26 09:49:00,37.9,21.0,29.35,NW,305,0.0,0.0,50,0.00,,,0.00,VWS V14.01,2013-03-26 13:49:00,
2013-03-26 09:54:00,38.3,21.8,29.35,NNW,340,0.0,0.0,51,0.00,,,0.00,VWS V14.01,2013-03-26 13:54:00,
2013-03-26 09:59:00,38.3,21.8,29.35,WNW,294,0.0,0.0,51,0.00,,,0.00,VWS V14.01,2013-03-26 13:59:00,
2013-03-26 10:04:00,39.9,22.3,29.35,WSW,256,0.0,0.0,49,0.00,,,0.00,VWS V14.01,2013-03-26 14:04:00,
2013-03-26 10:09:00,39.9,22.3,29.35,ESE,106,0.0,0.0,49,0.00,,,0.00,VWS V14.01,2013-03-26 14:09:00,
2013-03-26 10:14:00,39.9,22.3,29.35,West,261,0.0,0.0,49,0.00,,,0.00,VWS V14.01,2013-03-26 14:14:00,
2013-03-26 10:19:00,42.8,22.4,29.35,ENE,67,2.7,2.7,44,0.00,,,0.00,VWS V14.01,2013-03-26 14:19:00,
2013-03-26 10:24:00,43.2,22.7,29.35,WNW,282,0.0,2.7,44,0.00,,,0.00,VWS V14.01,2013-03-26 14:24:00,
2013-03-26 10:29:00,43.5,22.5,29.35,West,278,3.1,3.1,43,0.00,,,0.00,VWS V14.01,2013-03-26 14:29:00,
2013-03-26 10:34:00,43.5,22.5,29.35,NW,318,0.0,0.0,43,0.00,,,0.00,VWS V14.01,2013-03-26 14:34:00,
2013-03-26 10:39:00,43.5,22.5,29.35,SSW,192,0.0,0.0,43,0.00,,,0.00,VWS V14.01,2013-03-26 14:39:00,
2013-03-26 10:44:00,43.5,22.0,29.35,West,260,0.0,0.0,42,0.00,,,0.00,VWS V14.01,2013-03-26 14:44:00,
2013-03-26 10:49:00,43.5,22.0,29.35,SSE,160,3.1,3.1,42,0.00,,,0.00,VWS V14.01,2013-03-26 14:49:00,
2013-03-26 10:54:00,43.9,21.7,29.35,SSW,206,3.1,3.1,41,0.00,,,0.00,VWS V14.01,2013-03-26 14:54:00,
2013-03-26 10:59:00,43.7,21.6,29.35,West,260,0.0,0.0,41,0.00,,,0.00,VWS V14.01,2013-03-26 14:59:00,
2013-03-26 11:04:00,43.7,21.6,29.35,WSW,252,3.1,3.1,41,0.00,,,0.00,VWS V14.01,2013-03-26 15:04:00,
2013-03-26 11:09:00,44.8,22.0,29.35,ENE,61,2.7,2.7,40,0.00,,,0.00,VWS V14.01,2013-03-26 15:09:00,
2013-03-26 11:14:00,44.8,22.0,29.35,NNW,333,4.0,4.0,40,0.00,,,0.00,VWS V14.01,2013-03-26 15:14:00,
2013-03-26 11:19:00,44.4,21.6,29.35,WNW,297,0.0,0.0,40,0.00,,,0.00,VWS V14.01,2013-03-26 15:19:00,
2013-03-26 11:24:00,44.6,21.8,29.35,WNW,290,0.0,0.0,40,0.00,,,0.00,VWS V14.01,2013-03-26 15:24:00,
2013-03-26 11:29:00,44.6,21.2,29.35,WNW,290,0.0,0.0,39,0.00,,,0.00,VWS V14.01,2013-03-26 15:29:00,
2013-03-26 11:34:00,44.6,21.2,29.35,WSW,253,0.0,0.0,39,0.00,,,0.00,VWS V14.01,2013-03-26 15:34:00,
2013-03-26 11:39:00,44.6,21.2,29.35,WSW,242,3.1,3.1,39,0.00,,,0.00,VWS V14.01,2013-03-26 15:39:00,
2013-03-26 11:44:00,45.9,22.9,29.35,SSW,204,0.0,0.0,40,0.00,,,0.00,VWS V14.01,2013-03-26 15:44:00,
2013-03-26 11:49:00,46.2,22.6,29.35,WNW,298,4.0,4.0,39,0.00,,,0.00,VWS V14.01,2013-03-26 15:49:00,
2013-03-26 11:54:00,46.2,22.6,29.35,WNW,286,0.0,2.7,39,0.00,,,0.00,VWS V14.01,2013-03-26 15:54:00,
2013-03-26 11:59:00,45.7,22.2,29.35,West,280,3.1,3.1,39,0.00,,,0.00,VWS V14.01,2013-03-26 15:59:00,
2013-03-26 12:04:00,45.7,22.2,29.35,NW,324,0.0,0.0,39,0.00,,,0.00,VWS V14.01,2013-03-26 16:04:00,
2013-03-26 12:09:00,45.7,22.2,29.35,East,92,0.0,0.0,39,0.00,,,0.00,VWS V14.01,2013-03-26 16:09:00,
2013-03-26 12:14:00,46.2,22.6,29.35,SSE,168,0.0,0.0,39,0.00,,,0.00,VWS V14.01,2013-03-26 16:14:00,
2013-03-26 12:19:00,46.2,22.6,29.35,WSW,252,0.0,0.0,39,0.00,,,0.00,VWS V14.01,2013-03-26 16:19:00,
2013-03-26 12:24:00,46.9,22.7,29.35,South,181,0.0,0.0,38,0.00,,,0.00,VWS V14.01,2013-03-26 16:24:00,
2013-03-26 12:29:00,47.3,23.0,29.35,NW,304,0.0,3.1,38,0.00,,,0.00,VWS V14.01,2013-03-26 16:29:00,
2013-03-26 12:34:00,47.3,23.0,29.35,SE,126,2.7,2.7,38,0.00,,,0.00,VWS V14.01,2013-03-26 16:34:00,
2013-03-26 12:39:00,47.3,23.0,29.35,WNW,291,3.1,3.1,38,0.00,,,0.00,VWS V14.01,2013-03-26 16:39:00,
2013-03-26 12:44:00,47.1,22.8,29.35,East,88,3.1,3.1,38,0.00,,,0.00,VWS V14.01,2013-03-26 16:44:00,
2013-03-26 12:49:00,46.6,22.4,29.35,WNW,303,2.7,2.7,38,0.00,,,0.00,VWS V14.01,2013-03-26 16:49:00,
2013-03-26 12:54:00,46.4,22.2,29.35,NW,319,2.2,2.2,38,0.00,,,0.00,VWS V14.01,2013-03-26 16:54:00,
2013-03-26 12:59:00,46.4,22.2,29.35,East,95,2.2,2.2,38,0.00,,,0.00,VWS V14.01,2013-03-26 16:59:00,
2013-03-26 13:04:00,46.4,22.2,29.35,WNW,290,0.0,0.0,38,0.00,,,0.00,VWS V14.01,2013-03-26 17:04:00,
2013-03-26 13:09:00,46.2,22.0,29.35,NW,319,0.0,0.0,38,0.00,,,0.00,VWS V14.01,2013-03-26 17:09:00,
2013-03-26 13:14:00,46.2,22.0,29.35,WNW,302,2.7,2.7,38,0.00,,,0.00,VWS V14.01,2013-03-26 17:14:00,
2013-03-26 13:19:00,46.4,22.2,29.35,NW,305,0.0,0.0,38,0.00,,,0.00,VWS V14.01,2013-03-26 17:19:00,
2013-03-26 13:24:00,46.2,22.0,29.35,NW,319,0.0,0.0,38,0.00,,,0.00,VWS V14.01,2013-03-26 17:24:00,
2013-03-26 13:29:00,46.2,22.0,29.35,NW,319,0.0,0.0,38,0.00,,,0.00,VWS V14.01,2013-03-26 17:29:00,
2013-03-26 13:34:00,46.6,22.4,29.35,ESE,107,0.0,0.0,38,0.00,,,0.00,VWS V14.01,2013-03-26 17:34:00,
2013-03-26 13:39:00,46.6,22.4,29.35,SSW,202,0.0,0.0,38,0.00,,,0.00,VWS V14.01,2013-03-26 17:39:00,
2013-03-26 13:44:00,46.4,22.2,29.35,NE,41,0.0,0.0,38,0.00,,,0.00,VWS V14.01,2013-03-26 17:44:00,
2013-03-26 13:49:00,46.2,22.0,29.35,West,277,0.0,0.0,38,0.00,,,0.00,VWS V14.01,2013-03-26 17:49:00,
2013-03-26 13:54:00,46.0,21.9,29.35,ENE,68,0.0,0.0,38,0.00,,,0.00,VWS V14.01,2013-03-26 17:54:00,
2013-03-26 13:59:00,46.8,22.5,29.35,WSW,238,0.0,0.0,38,0.00,,,0.00,VWS V14.01,2013-03-26 17:59:00,
2013-03-26 14:04:00,47.1,22.8,29.35,NNE,28,0.0,0.0,38,0.00,,,0.00,VWS V14.01,2013-03-26 18:04:00,
2013-03-26 14:09:00,49.5,24.3,29.35,West,273,0.0,0.0,37,0.00,,,0.00,VWS V14.01,2013-03-26 18:09:00,
2013-03-26 14:14:00,48.6,23.5,29.35,WNW,292,2.7,2.7,37,0.00,,,0.00,VWS V14.01,2013-03-26 18:14:00,
2013-03-26 14:19:00,48.6,23.5,29.35,WNW,294,2.2,2.7,37,0.00,,,0.00,VWS V14.01,2013-03-26 18:19:00,
2013-03-26 14:24:00,46.9,22.0,29.35,West,276,2.7,2.7,37,0.00,,,0.00,VWS V14.01,2013-03-26 18:24:00,
2013-03-26 14:29:00,46.6,21.7,29.35,WNW,291,0.0,0.0,37,0.00,,,0.00,VWS V14.01,2013-03-26 18:29:00,
2013-03-26 14:34:00,46.6,21.7,29.35,NNW,329,0.0,0.0,37,0.00,,,0.00,VWS V14.01,2013-03-26 18:34:00,
2013-03-26 14:39:00,48.2,23.2,29.35,ESE,106,3.6,3.6,37,0.00,,,0.00,VWS V14.01,2013-03-26 18:39:00,
2013-03-26 14:44:00,48.2,23.2,29.35,ENE,72,0.0,0.0,37,0.00,,,0.00,VWS V14.01,2013-03-26 18:44:00,
2013-03-26 14:49:00,50.4,24.4,29.35,WSW,249,3.6,3.6,36,0.00,,,0.00,VWS V14.01,2013-03-26 18:49:00,
2013-03-26 14:54:00,50.4,22.4,29.35,NW,315,0.0,0.0,33,0.00,,,0.00,VWS V14.01,2013-03-26 18:54:00,
2013-03-26 14:59:00,50.4,22.4,29.35,NW,318,0.0,0.0,33,0.00,,,0.00,VWS V14.01,2013-03-26 18:59:00,
2013-03-26 15:04:00,51.1,22.3,29.35,West,262,0.0,0.0,32,0.00,,,0.00,VWS V14.01,2013-03-26 19:04:00,
2013-03-26 15:09:00,50.4,21.6,29.35,WSW,258,3.1,3.1,32,0.00,,,0.00,VWS V14.01,2013-03-26 19:09:00,
2013-03-26 15:14:00,50.4,21.6,29.35,SW,223,0.0,0.0,32,0.00,,,0.00,VWS V14.01,2013-03-26 19:14:00,
2013-03-26 15:19:00,50.0,20.6,29.35,West,275,3.1,3.1,31,0.00,,,0.00,VWS V14.01,2013-03-26 19:19:00,
2013-03-26 15:24:00,50.0,20.6,29.35,NW,304,0.0,0.0,31,0.00,,,0.00,VWS V14.01,2013-03-26 19:24:00,
2013-03-26 15:29:00,49.3,20.7,29.35,SW,221,0.0,0.0,32,0.00,,,0.00,VWS V14.01,2013-03-26 19:29:00,
2013-03-26 15:34:00,49.5,20.9,29.35,West,277,4.0,4.0,32,0.00,,,0.00,VWS V14.01,2013-03-26 19:34:00,
2013-03-26 15:39:00,48.6,19.3,29.32,WNW,302,0.0,0.0,31,0.00,,,0.00,VWS V14.01,2013-03-26 19:39:00,
2013-03-26 15:44:00,48.2,19.0,29.32,SW,216,0.0,0.0,31,0.00,,,0.00,VWS V14.01,2013-03-26 19:44:00,
2013-03-26 15:49:00,48.2,19.0,29.32,SE,139,0.0,0.0,31,0.00,,,0.00,VWS V14.01,2013-03-26 19:49:00,
2013-03-26 15:54:00,49.3,19.9,29.35,West,266,0.0,0.0,31,0.00,,,0.00,VWS V14.01,2013-03-26 19:54:00,
2013-03-26 15:59:00,49.3,19.9,29.35,NW,310,0.0,0.0,31,0.00,,,0.00,VWS V14.01,2013-03-26 19:59:00,
2013-03-26 16:04:00,49.3,19.9,29.35,NNW,333,3.1,3.1,31,0.00,,,0.00,VWS V14.01,2013-03-26 20:04:00,
2013-03-26 16:09:00,49.3,19.9,29.35,NW,321,0.0,0.0,31,0.00,,,0.00,VWS V14.01,2013-03-26 20:09:00,
2013-03-26 16:14:00,48.7,19.5,29.35,NW,305,2.2,2.2,31,0.00,,,0.00,VWS V14.01,2013-03-26 20:14:00,
2013-03-26 16:19:00,48.9,19.6,29.35,NW,315,2.7,2.7,31,0.00,,,0.00,VWS V14.01,2013-03-26 20:19:00,
2013-03-26 16:24:00,48.9,19.6,29.35,NW,318,3.1,3.1,31,0.00,,,0.00,VWS V14.01,2013-03-26 20:24:00,
2013-03-26 16:29:00,48.9,19.6,29.35,West,271,0.0,0.0,31,0.00,,,0.00,VWS V14.01,2013-03-26 20:29:00,
2013-03-26 16:34:00,48.9,19.6,29.35,WNW,298,0.0,0.0,31,0.00,,,0.00,VWS V14.01,2013-03-26 20:34:00,
2013-03-26 16:39:00,49.5,19.3,29.35,WNW,289,0.0,0.0,30,0.00,,,0.00,VWS V14.01,2013-03-26 20:39:00,
2013-03-26 16:44:00,49.8,19.6,29.35,North,0,0.0,0.0,30,0.00,,,0.00,VWS V14.01,2013-03-26 20:44:00,
2013-03-26 16:49:00,49.8,19.6,29.35,NW,304,2.2,2.2,30,0.00,,,0.00,VWS V14.01,2013-03-26 20:49:00,
2013-03-26 16:54:00,49.8,19.6,29.35,NNW,341,0.0,0.0,30,0.00,,,0.00,VWS V14.01,2013-03-26 20:54:00,
2013-03-26 16:59:00,49.8,19.6,29.35,SE,130,0.0,0.0,30,0.00,,,0.00,VWS V14.01,2013-03-26 20:59:00,
2013-03-26 17:04:00,49.3,19.2,29.35,NW,317,0.0,0.0,30,0.00,,,0.00,VWS V14.01,2013-03-26 21:04:00,
2013-03-26 17:09:00,48.9,18.9,29.35,West,273,0.0,0.0,30,0.00,,,0.00,VWS V14.01,2013-03-26 21:09:00,
2013-03-26 17:14:00,48.6,18.5,29.35,West,274,0.0,0.0,30,0.00,,,0.00,VWS V14.01,2013-03-26 21:14:00,
2013-03-26 17:19:00,48.6,18.5,29.35,WSW,251,0.0,0.0,30,0.00,,,0.00,VWS V14.01,2013-03-26 21:19:00,
2013-03-26 17:24:00,48.6,18.5,29.35,NNW,331,0.0,0.0,30,0.00,,,0.00,VWS V14.01,2013-03-26 21:24:00,
2013-03-26 17:29:00,49.1,19.0,29.35,NNW,331,0.0,0.0,30,0.00,,,0.00,VWS V14.01,2013-03-26 21:29:00,
2013-03-26 17:34:00,49.1,19.0,29.35,WNW,289,3.1,3.1,30,0.00,,,0.00,VWS V14.01,2013-03-26 21:34:00,
2013-03-26 17:39:00,49.1,18.2,29.38,WNW,296,0.0,0.0,29,0.00,,,0.00,VWS V14.01,2013-03-26 21:39:00,
2013-03-26 17:44:00,49.5,19.3,29.38,West,274,0.0,0.0,30,0.00,,,0.00,VWS V14.01,2013-03-26 21:44:00,
2013-03-26 17:49:00,49.5,19.3,29.38,NW,305,3.6,3.6,30,0.00,,,0.00,VWS V14.01,2013-03-26 21:49:00,
2013-03-26 17:54:00,49.3,18.4,29.38,NW,305,3.6,3.6,29,0.00,,,0.00,VWS V14.01,2013-03-26 21:54:00,
2013-03-26 17:59:00,49.3,18.4,29.38,WNW,289,3.1,3.1,29,0.00,,,0.00,VWS V14.01,2013-03-26 21:59:00,
2013-03-26 18:04:00,48.9,18.1,29.38,NNW,340,0.0,0.0,29,0.00,,,0.00,VWS V14.01,2013-03-26 22:04:00,
2013-03-26 18:09:00,48.7,17.9,29.38,WNW,293,0.0,0.0,29,0.00,,,0.00,VWS V14.01,2013-03-26 22:09:00,
2013-03-26 18:14:00,48.4,17.6,29.38,WNW,297,0.0,0.0,29,0.00,,,0.00,VWS V14.01,2013-03-26 22:14:00,
2013-03-26 18:19:00,48.0,18.1,29.38,WNW,303,0.0,0.0,30,0.00,,,0.00,VWS V14.01,2013-03-26 22:19:00,
2013-03-26 18:24:00,48.0,18.1,29.38,WSW,253,0.0,0.0,30,0.00,,,0.00,VWS V14.01,2013-03-26 22:24:00,
2013-03-26 18:29:00,47.7,17.8,29.38,NW,310,0.0,0.0,30,0.00,,,0.00,VWS V14.01,2013-03-26 22:29:00,
2013-03-26 18:34:00,47.7,17.8,29.38,WNW,286,0.0,0.0,30,0.00,,,0.00,VWS V14.01,2013-03-26 22:34:00,
2013-03-26 18:39:00,47.5,17.6,29.38,WNW,299,0.0,0.0,30,0.00,,,0.00,VWS V14.01,2013-03-26 22:39:00,
2013-03-26 18:44:00,47.5,17.6,29.38,NW,315,2.7,2.7,30,0.00,,,0.00,VWS V14.01,2013-03-26 22:44:00,
2013-03-26 18:49:00,47.5,16.8,29.38,NW,315,2.7,2.7,29,0.00,,,0.00,VWS V14.01,2013-03-26 22:49:00,
2013-03-26 18:54:00,47.1,16.5,29.38,NW,311,0.0,0.0,29,0.00,,,0.00,VWS V14.01,2013-03-26 22:54:00,
2013-03-26 18:59:00,46.9,16.4,29.38,NW,305,2.7,2.7,29,0.00,,,0.00,VWS V14.01,2013-03-26 22:59:00,
2013-03-26 19:04:00,46.6,16.8,29.38,NW,309,0.0,0.0,30,0.00,,,0.00,VWS V14.01,2013-03-26 23:04:00,
2013-03-26 19:09:00,46.2,16.5,29.38,NW,318,0.0,0.0,30,0.00,,,0.00,VWS V14.01,2013-03-26 23:09:00,
2013-03-26 19:14:00,46.2,16.5,29.38,NW,309,2.7,2.7,30,0.00,,,0.00,VWS V14.01,2013-03-26 23:14:00,
2013-03-26 19:19:00,45.5,15.9,29.38,NW,305,0.0,0.0,30,0.00,,,0.00,VWS V14.01,2013-03-26 23:19:00,
2013-03-26 19:24:00,45.5,15.9,29.41,WNW,294,0.0,0.0,30,0.00,,,0.00,VWS V14.01,2013-03-26 23:24:00,
2013-03-26 19:29:00,45.0,16.2,29.41,NW,311,0.0,0.0,31,0.00,,,0.00,VWS V14.01,2013-03-26 23:29:00,
2013-03-26 19:34:00,45.0,16.2,29.41,NNW,335,0.0,0.0,31,0.00,,,0.00,VWS V14.01,2013-03-26 23:34:00,
2013-03-26 19:39:00,44.2,15.5,29.41,NNW,330,0.0,0.0,31,0.00,,,0.00,VWS V14.01,2013-03-26 23:39:00,
2013-03-26 19:44:00,44.2,15.5,29.41,WNW,297,0.0,0.0,31,0.00,,,0.00,VWS V14.01,2013-03-26 23:44:00,
2013-03-26 19:49:00,43.7,15.1,29.41,NW,321,0.0,0.0,31,0.00,,,0.00,VWS V14.01,2013-03-26 23:49:00,
2013-03-26 19:54:00,43.7,15.8,29.41,NW,321,0.0,0.0,32,0.00,,,0.00,VWS V14.01,2013-03-26 23:54:00,
2013-03-26 19:59:00,43.7,15.8,29.41,NW,321,0.0,0.0,32,0.00,,,0.00,VWS V14.01,2013-03-26 23:59:00,
2013-03-26 20:04:00,43.0,15.2,29.41,NW,321,0.0,0.0,32,0.00,,,0.00,VWS V14.01,2013-03-27 00:04:00,
2013-03-26 20:09:00,43.0,15.2,29.41,NW,321,0.0,0.0,32,0.00,,,0.00,VWS V14.01,2013-03-27 00:09:00,
2013-03-26 20:14:00,42.3,15.2,29.41,NW,316,0.0,0.0,33,0.00,,,0.00,VWS V14.01,2013-03-27 00:14:00,
2013-03-26 20:19:00,42.1,15.1,29.41,NW,316,0.0,0.0,33,0.00,,,0.00,VWS V14.01,2013-03-27 00:19:00,
2013-03-26 20:24:00,42.1,15.1,29.41,NW,314,0.0,0.0,33,0.00,,,0.00,VWS V14.01,2013-03-27 00:24:00,
2013-03-26 20:29:00,41.5,15.3,29.41,WNW,302,0.0,0.0,34,0.00,,,0.00,VWS V14.01,2013-03-27 00:29:00,
2013-03-26 20:34:00,41.5,15.3,29.41,WNW,302,0.0,0.0,34,0.00,,,0.00,VWS V14.01,2013-03-27 00:34:00,
2013-03-26 20:39:00,41.2,15.0,29.41,WNW,292,0.0,0.0,34,0.00,,,0.00,VWS V14.01,2013-03-27 00:39:00,
2013-03-26 20:44:00,41.0,14.8,29.44,WNW,292,0.0,0.0,34,0.00,,,0.00,VWS V14.01,2013-03-27 00:44:00,
2013-03-26 20:49:00,41.0,14.8,29.44,WNW,292,0.0,0.0,34,0.00,,,0.00,VWS V14.01,2013-03-27 00:49:00,
2013-03-26 20:54:00,40.6,15.1,29.44,WNW,292,0.0,0.0,35,0.00,,,0.00,VWS V14.01,2013-03-27 00:54:00,
2013-03-26 20:59:00,40.6,15.1,29.44,WNW,292,0.0,0.0,35,0.00,,,0.00,VWS V14.01,2013-03-27 00:59:00,
2013-03-26 21:04:00,40.3,14.8,29.44,NW,304,0.0,0.0,35,0.00,,,0.00,VWS V14.01,2013-03-27 01:04:00,
2013-03-26 21:09:00,40.3,14.8,29.44,NW,304,0.0,0.0,35,0.00,,,0.00,VWS V14.01,2013-03-27 01:09:00,
2013-03-26 21:14:00,39.9,15.1,29.44,WNW,282,0.0,0.0,36,0.00,,,0.00,VWS V14.01,2013-03-27 01:14:00,
2013-03-26 21:19:00,39.6,15.4,29.44,WNW,282,0.0,0.0,37,0.00,,,0.00,VWS V14.01,2013-03-27 01:19:00,
2013-03-26 21:24:00,39.4,14.7,29.44,WNW,283,0.0,0.0,36,0.00,,,0.00,VWS V14.01,2013-03-27 01:24:00,
2013-03-26 21:29:00,39.4,14.7,29.44,WNW,282,0.0,0.0,36,0.00,,,0.00,VWS V14.01,2013-03-27 01:29:00,
2013-03-26 21:34:00,39.4,14.7,29.44,WNW,283,0.0,0.0,36,0.00,,,0.00,VWS V14.01,2013-03-27 01:34:00,
2013-03-26 21:39:00,38.7,15.3,29.44,WNW,287,0.0,0.0,38,0.00,,,0.00,VWS V14.01,2013-03-27 01:39:00,
2013-03-26 21:44:00,38.7,15.9,29.44,NW,319,0.0,0.0,39,0.00,,,0.00,VWS V14.01,2013-03-27 01:44:00,
2013-03-26 21:49:00,38.7,15.9,29.44,NW,319,0.0,0.0,39,0.00,,,0.00,VWS V14.01,2013-03-27 01:49:00,
2013-03-26 21:54:00,38.7,15.9,29.44,NW,319,0.0,0.0,39,0.00,,,0.00,VWS V14.01,2013-03-27 01:54:00,
2013-03-26 21:59:00,38.7,15.9,29.44,NW,319,0.0,0.0,39,0.00,,,0.00,VWS V14.01,2013-03-27 01:59:00,
2013-03-26 22:04:00,37.8,15.0,29.44,NW,319,0.0,0.0,39,0.00,,,0.00,VWS V14.01,2013-03-27 02:04:00,
2013-03-26 22:09:00,37.6,14.9,29.44,NW,319,0.0,0.0,39,0.00,,,0.00,VWS V14.01,2013-03-27 02:09:00,
2013-03-26 22:14:00,37.2,14.6,29.44,NW,319,0.0,0.0,39,0.00,,,0.00,VWS V14.01,2013-03-27 02:14:00,
2013-03-26 22:19:00,37.2,14.6,29.44,NW,319,0.0,0.0,39,0.00,,,0.00,VWS V14.01,2013-03-27 02:19:00,
2013-03-26 22:24:00,37.2,14.6,29.44,NW,319,0.0,0.0,39,0.00,,,0.00,VWS V14.01,2013-03-27 02:24:00,
2013-03-26 22:29:00,36.5,13.9,29.47,NW,319,0.0,0.0,39,0.00,,,0.00,VWS V14.01,2013-03-27 02:29:00,
2013-03-26 22:34:00,36.3,13.8,29.47,NW,319,0.0,0.0,39,0.00,,,0.00,VWS V14.01,2013-03-27 02:34:00,
2013-03-26 22:39:00,36.1,13.6,29.47,NW,319,0.0,0.0,39,0.00,,,0.00,VWS V14.01,2013-03-27 02:39:00,
2013-03-26 22:44:00,36.0,14.0,29.47,NW,319,0.0,0.0,40,0.00,,,0.00,VWS V14.01,2013-03-27 02:44:00,
2013-03-26 22:49:00,36.0,14.0,29.47,NW,319,0.0,0.0,40,0.00,,,0.00,VWS V14.01,2013-03-27 02:49:00,
2013-03-26 22:54:00,35.6,13.7,29.47,NW,319,0.0,0.0,40,0.00,,,0.00,VWS V14.01,2013-03-27 02:54:00,
2013-03-26 22:59:00,35.6,13.7,29.47,NW,319,0.0,0.0,40,0.00,,,0.00,VWS V14.01,2013-03-27 02:59:00,
2013-03-26 23:04:00,35.2,13.4,29.47,NW,319,0.0,0.0,40,0.00,,,0.00,VWS V14.01,2013-03-27 03:04:00,
2013-03-26 23:09:00,35.2,13.4,29.47,NW,319,0.0,0.0,40,0.00,,,0.00,VWS V14.01,2013-03-27 03:09:00,
2013-03-26 23:14:00,34.7,12.9,29.47,NW,319,0.0,0.0,40,0.00,,,0.00,VWS V14.01,2013-03-27 03:14:00,
2013-03-26 23:19:00,34.3,13.1,29.47,NW,319,0.0,0.0,41,0.00,,,0.00,VWS V14.01,2013-03-27 03:19:00,
2013-03-26 23:24:00,34.2,12.9,29.47,NW,319,0.0,0.0,41,0.00,,,0.00,VWS V14.01,2013-03-27 03:24:00,
2013-03-26 23:29:00,33.8,12.6,29.47,NW,319,0.0,0.0,41,0.00,,,0.00,VWS V14.01,2013-03-27 03:29:00,
2013-03-26 23:34:00,33.6,13.0,29.47,NW,319,0.0,0.0,42,0.00,,,0.00,VWS V14.01,2013-03-27 03:34:00,
2013-03-26 23:39:00,33.6,13.0,29.47,NW,319,0.0,0.0,42,0.00,,,0.00,VWS V14.01,2013-03-27 03:39:00,
2013-03-26 23:44:00,33.3,12.7,29.47,NW,319,0.0,0.0,42,0.00,,,0.00,VWS V14.01,2013-03-27 03:44:00,
2013-03-26 23:49:00,33.3,12.7,29.47,NW,319,0.0,0.0,42,0.00,,,0.00,VWS V14.01,2013-03-27 03:49:00,
2013-03-26 23:54:00,32.9,12.9,29.47,NW,319,0.0,0.0,43,0.00,,,0.00,VWS V14.01,2013-03-27 03:54:00,
2013-03-26 23:59:00,32.9,12.9,29.47,NW,319,0.0,0.0,43,0.00,,,0.00,VWS V14.01,2013-03-27 03:59:00,